Location: Ravensburg
(47.7866°N, 9.6124°E)
Time: 03:23:35
(UTC+02:00)

CAS-6 - Pass Details

Date: 17 March 2026
Orbit: 601 x 618 km, 97.8° (Epoch: 14 April)

Event Time Altitude Azimuth Distance (km) Brightness Sun altitude
Exits shadow 22:50:29 12° 330° (NNW) 1,830 ? -38.6°
Drops below altitude 10° 22:50:49 10° 332° (NNW) 1,957 ? -38.6°
Sets 22:53:08 0° 340° (NNW) 2,867 ? -38.8°
